This is the latest recevied weather packets stored in our database for station/object W2TAO. If no packets are shown the sender has not sent any weather packets the latest 10 day(s).
| Time | Temp. | Humidity | Pressure | Rain* | Wind** | Luminosity | Snow |
|---|---|---|---|---|---|---|---|
| 1777515077 | 8.89° C | 99% | 1011.1 hPa | 1.27 mm | - | 0 W/m² | - |
| 1777514774 | 8.89° C | 99% | 1010.8 hPa | 2.29 mm | - | 0 W/m² | - |
| 1777514471 | 8.89° C | 98% | 1011 hPa | 4.83 mm | - | 0 W/m² | - |
| 1777514168 | 8.89° C | 98% | 1011.1 hPa | 4.83 mm | - | 0 W/m² | - |
| 1777513864 | 8.89° C | 98% | 1010.8 hPa | 5.33 mm | - | 0 W/m² | - |
| 1777513562 | 8.89° C | 98% | 1011.1 hPa | 4.83 mm | - | 0 W/m² | - |
| 1777513258 | 8.89° C | 98% | 1011 hPa | 4.32 mm | - | 0 W/m² | - |
| 1777512955 | 8.89° C | 98% | 1011.3 hPa | 3.56 mm | - | 0 W/m² | - |
| 1777512651 | 8.89° C | 98% | 1011.3 hPa | 3.56 mm | - | 0 W/m² | - |
| 1777512348 | 8.89° C | 97% | 1011.5 hPa | 4.32 mm | - | 0 W/m² | - |
| 1777512045 | 9.44° C | 97% | 1011.6 hPa | 5.33 mm | - | 0 W/m² | - |
| 1777511743 | 9.44° C | 97% | 1011.4 hPa | 6.1 mm | - | 0 W/m² | - |
| 1777511440 | 9.44° C | 97% | 1011.6 hPa | 6.1 mm | - | 0 W/m² | - |
| 1777511137 | 9.44° C | 96% | 1011.5 hPa | 3.56 mm | - | 0 W/m² | - |
| 1777510832 | 9.44° C | 95% | 1011.4 hPa | 2.29 mm | - | 0 W/m² | - |
| 1777510530 | 9.44° C | 94% | 1011.2 hPa | 0.51 mm | - | 0 W/m² | - |
| 1777510226 | 10° C | 94% | 1011.2 hPa | 0.51 mm | - | 0 W/m² | - |
| 1777509922 | 10° C | 93% | 1011.2 hPa | 1.27 mm | - | 0 W/m² | - |
| 1777509618 | 10° C | 92% | 1011 hPa | 0.51 mm | - | 0 W/m² | - |
| 1777509315 | 10° C | 91% | 1011 hPa | 1.27 mm | - | 0 W/m² | - |
| 1777509012 | 10.56° C | 89% | 1011 hPa | 1.27 mm | - | 0 W/m² | - |
| 1777508709 | 10.56° C | 89% | 1010.8 hPa | 0.51 mm | - | 0 W/m² | - |
| 1777508406 | 10.56° C | 88% | 1011 hPa | 0 mm | - | 0 W/m² | - |
| 1777508103 | 10.56° C | 90% | 1010.8 hPa | 0 mm | - | 0 W/m² | - |
| 1777507800 | 10.56° C | 88% | 1010.8 hPa | 0 mm | - | 0 W/m² | - |
* Rain latest hour (hover to see other rain measurements)
** Current wind speed in m/s (hover to see current wind gust speed)